EN

Hourly Weather Amalapuram

Today, 24 January, Sunday

Time Temperature Precipitation Wind Pressure Humidity
00:00 +22°C° 0 mm 1 mps 758 mmHg 93%
01:00 +22°C° 0 mm 1 mps 758 mmHg 94%
02:00 +20°C° 0 mm 0 mps 758 mmHg 94%
03:00 +19°C° 0 mm 0 mps 757 mmHg 95%
04:00 +19°C° 0 mm 0 mps 757 mmHg 95%
05:00 +19°C° 0 mm 0 mps 758 mmHg 96%
06:00 +21°C° 0 mm 0 mps 758 mmHg 88%
07:00 +23°C° 0 mm 0 mps 759 mmHg 81%
08:00 +25°C° 0 mm 0 mps 760 mmHg 74%
09:00 +28°C° 0 mm 1 mps 760 mmHg 66%
10:00 +30°C° 0 mm 1 mps 760 mmHg 59%
11:00 +32°C° 0 mm 2 mps 760 mmHg 51%
12:00 +32°C° 0 mm 2 mps 759 mmHg 52%
13:00 +33°C° 0 mm 3 mps 758 mmHg 52%
14:00 +33°C° 0 mm 3 mps 758 mmHg 52%
15:00 +30°C° 0 mm 3 mps 758 mmHg 58%
16:00 +29°C° 0 mm 3 mps 758 mmHg 64%
17:00 +27°C° 0 mm 2 mps 758 mmHg 70%
18:00 +26°C° 0 mm 2 mps 758 mmHg 76%
19:00 +25°C° 0 mm 2 mps 759 mmHg 82%
20:00 +23°C° 0 mm 2 mps 759 mmHg 88%
21:00 +23°C° 0 mm 1 mps 759 mmHg 90%
22:00 +22°C° 0 mm 1 mps 759 mmHg 92%
23:00 +20°C° 0 mm 0 mps 759 mmHg 94%

Tomorrow, 25 January, Monday

Time Temperature Precipitation Wind Pressure Humidity
00:00 +20°C° 0 mm 0 mps 759 mmHg 94%
01:00 +19°C° 0 mm 0 mps 758 mmHg 95%
02:00 +19°C° 0 mm 0 mps 758 mmHg 96%
03:00 +19°C° 0 mm 0 mps 758 mmHg 95%
04:00 +19°C° 0 mm 0 mps 758 mmHg 95%
05:00 +19°C° 0 mm 0 mps 758 mmHg 95%
06:00 +21°C° 0 mm 0 mps 759 mmHg 87%
07:00 +23°C° 0 mm 0 mps 759 mmHg 80%
08:00 +25°C° 0 mm 0 mps 760 mmHg 72%
09:00 +29°C° 0 mm 1 mps 760 mmHg 64%
10:00 +30°C° 0 mm 1 mps 760 mmHg 57%
11:00 +32°C° 0 mm 1 mps 760 mmHg 49%
12:00 +32°C° 0 mm 2 mps 759 mmHg 48%
13:00 +32°C° 0 mm 2 mps 758 mmHg 48%
14:00 +32°C° 0 mm 2 mps 757 mmHg 47%
15:00 +30°C° 0 mm 2 mps 757 mmHg 53%
16:00 +29°C° 0 mm 2 mps 757 mmHg 59%
17:00 +27°C° 0 mm 3 mps 757 mmHg 65%
18:00 +26°C° 0 mm 2 mps 758 mmHg 71%
19:00 +24°C° 0 mm 2 mps 758 mmHg 78%
20:00 +23°C° 0 mm 1 mps 759 mmHg 84%
21:00 +22°C° 0 mm 1 mps 759 mmHg 85%
22:00 +22°C° 0 mm 1 mps 759 mmHg 87%
23:00 +22°C° 0 mm 1 mps 758 mmHg 89%

Day after tomorrow, 26 January, Tuesday

Time Temperature Precipitation Wind Pressure Humidity
00:00 +21°C° 0 mm 1 mps 758 mmHg 91%
01:00 +21°C° 0 mm 1 mps 758 mmHg 92%
02:00 +20°C° 0 mm 1 mps 758 mmHg 94%
03:00 +20°C° 0 mm 1 mps 758 mmHg 94%
04:00 +18°C° 0 mm 0 mps 758 mmHg 95%
05:00 +18°C° 0 mm 0 mps 758 mmHg 95%
06:00 +20°C° 0 mm 0 mps 758 mmHg 86%
07:00 +22°C° 0 mm 0 mps 759 mmHg 77%
08:00 +24°C° 0 mm 0 mps 759 mmHg 68%
09:00 +28°C° 0 mm 1 mps 759 mmHg 59%
10:00 +31°C° 0 mm 1 mps 759 mmHg 49%
11:00 +33°C° 0 mm 1 mps 759 mmHg 40%
12:00 +34°C° 0 mm 2 mps 758 mmHg 41%
13:00 +34°C° 0 mm 2 mps 757 mmHg 41%
14:00 +34°C° 0 mm 2 mps 757 mmHg 42%
15:00 +31°C° 0 mm 2 mps 757 mmHg 49%
16:00 +29°C° 0 mm 2 mps 757 mmHg 56%
17:00 +27°C° 0 mm 2 mps 756 mmHg 63%
18:00 +26°C° 0 mm 2 mps 757 mmHg 68%
19:00 +24°C° 0 mm 2 mps 758 mmHg 73%
20:00 +23°C° 0 mm 1 mps 758 mmHg 78%
21:00 +22°C° 0 mm 1 mps 758 mmHg 80%
22:00 +22°C° 0 mm 1 mps 758 mmHg 82%
23:00 +19°C° 0 mm 0 mps 758 mmHg 84%

27 January, Wednesday

Time Temperature Precipitation Wind Pressure Humidity
00:00 +19°C° 0 mm 0 mps 758 mmHg 85%
01:00 +19°C° 0 mm 0 mps 757 mmHg 86%
02:00 +18°C° 0 mm 0 mps 757 mmHg 87%
03:00 +18°C° 0 mm 0 mps 757 mmHg 88%
04:00 +20°C° 0 mm 1 mps 757 mmHg 89%
05:00 +20°C° 0 mm 1 mps 757 mmHg 90%
06:00 +22°C° 0 mm 1 mps 758 mmHg 81%
07:00 +24°C° 0 mm 1 mps 758 mmHg 72%
08:00 +26°C° 0 mm 1 mps 759 mmHg 63%
09:00 +28°C° 0 mm 1 mps 759 mmHg 56%
10:00 +30°C° 0 mm 2 mps 759 mmHg 48%
11:00 +32°C° 0 mm 2 mps 759 mmHg 40%
12:00 +32°C° 0 mm 2 mps 758 mmHg 40%
13:00 +32°C° 0 mm 2 mps 757 mmHg 40%
14:00 +33°C° 0 mm 3 mps 756 mmHg 39%
15:00 +30°C° 0 mm 2 mps 756 mmHg 46%
16:00 +29°C° 0 mm 2 mps 756 mmHg 53%
17:00 +27°C° 0 mm 2 mps 756 mmHg 59%
18:00 +25°C° 0 mm 2 mps 757 mmHg 68%
19:00 +23°C° 0 mm 1 mps 758 mmHg 76%
20:00 +21°C° 0 mm 1 mps 758 mmHg 84%
21:00 +21°C° 0 mm 1 mps 758 mmHg 85%
22:00 +21°C° 0 mm 1 mps 758 mmHg 87%
23:00 +21°C° 0 mm 1 mps 758 mmHg 89%

28 January, Thursday

Time Temperature Precipitation Wind Pressure Humidity
00:00 +20°C° 0 mm 1 mps 758 mmHg 90%
01:00 +20°C° 0 mm 1 mps 757 mmHg 91%
02:00 +20°C° 0 mm 1 mps 757 mmHg 92%
03:00 +20°C° 0 mm 1 mps 757 mmHg 93%
04:00 +20°C° 0 mm 1 mps 757 mmHg 93%
05:00 +20°C° 0 mm 1 mps 757 mmHg 93%
06:00 +22°C° 0 mm 1 mps 758 mmHg 84%
07:00 +24°C° 0 mm 1 mps 758 mmHg 76%
08:00 +26°C° 0 mm 1 mps 759 mmHg 67%
09:00 +28°C° 0 mm 1 mps 759 mmHg 59%
10:00 +30°C° 0 mm 2 mps 759 mmHg 51%
11:00 +32°C° 0 mm 2 mps 759 mmHg 42%
12:00 +32°C° 0 mm 2 mps 758 mmHg 41%
13:00 +32°C° 0 mm 2 mps 757 mmHg 39%
14:00 +34°C° 0 mm 3 mps 757 mmHg 38%
15:00 +31°C° 0 mm 2 mps 757 mmHg 45%
16:00 +29°C° 0 mm 2 mps 757 mmHg 53%
17:00 +27°C° 0 mm 2 mps 757 mmHg 60%
18:00 +25°C° 0 mm 2 mps 757 mmHg 68%
19:00 +23°C° 0 mm 1 mps 758 mmHg 75%
20:00 +21°C° 0 mm 1 mps 759 mmHg 83%
21:00 +21°C° 0 mm 1 mps 759 mmHg 85%
22:00 +20°C° 0 mm 1 mps 759 mmHg 87%
23:00 +20°C° 0 mm 1 mps 759 mmHg 90%

29 January, Friday

Time Temperature Precipitation Wind Pressure Humidity
Show more